Missouri River (Missouri), Napolean (06894650)

StateMissouriLatestUnknown (51400 cfs)
RiverMissouri RiverRatingObservedEstimated
Updated2026-05-05 14:00 (22 minutes ago)Flood - The river is flooding. Obstacles can be treacherous or deadly. The river should be avoided at this stage for casual trips and definitely for the inexperienced. Trips should be attempted only with protective gear and equipment.Flood(none)(none)
Discharge51400 cfs (median: 89500 cfs)High - The river is high and potentially dangerous, especially for the young and / or inexperienced. Normal stream obstacles are sometimes difficult to navigate. Extended distances can be attempted, but canoe travel may not be advisable.High(none)(none)
Height8.5 feetGood - Conditions are ideal for a canoe or kayak. Boats typically will drag on fewer than one-quarter of riffles, if at all, and portages are unnecessary or rare. Normal float lengths can be attempted without a problem.Good(none)(none)
TrendFalling (steady over 24 hours)Low - River is low but can still be floated. Some riffles are okay but most come with significant dragging and might need a portage. Float lengths should be reduced to accommodate low flow, dragging, and portages.Low(none)(none)
USGSExternal icon USGS Site (External icon Duck Duck Go Maps)Poor - River is too low to float comfortably. Most or all riffles will drag or must be portaged and some obstacles (such as slick shelf rock) cause undue problems. Avoid the river at this stage for casual paddling trips.Poor(none)(none)

Trending Data

Plot Image

Trips for Missouri River (Missouri), Napolean (06894650)

DateStartEndDistanceConditionDischargeHeightFishingDetails

A total of 0 rows are displayed.

Condition Descriptions

Fishing Conditions

Fish Species

Notes

Classic Trip List

The classic River Trips application is still available for use. It is updated with the new system using a data retrofit. It is no longer maintained. The original River Trips application is no longer updated (as of 1 Dec 2016) but can be checked for errors or for the condition of the data before it was converted to the new system.

Gauge Data Table

ObservationHeightDischargeMaximum
Discharge
Minimum
Discharge
Mean
Discharge
P05P10P20P25P50
(Median)
P75P80P90P95
2026-05-05 14:00 8.50 51400 142000 (2016) 37000 (2023) 85700 38200 49600 51100 89500 107000 131000 142000
2026-05-05 13:00 8.53 51600 142000 (2016) 37000 (2023) 85700 38200 49600 51100 89500 107000 131000 142000
2026-05-05 12:00 8.50 51400 142000 (2016) 37000 (2023) 85700 38200 49600 51100 89500 107000 131000 142000
2026-05-05 11:00 8.49 51400 142000 (2016) 37000 (2023) 85700 38200 49600 51100 89500 107000 131000 142000
2026-05-05 10:00 8.47 51300 142000 (2016) 37000 (2023) 85700 38200 49600 51100 89500 107000 131000 142000
2026-05-05 09:00 8.48 51300 142000 (2016) 37000 (2023) 85700 38200 49600 51100 89500 107000 131000 142000
2026-05-05 08:00 8.46 51200 142000 (2016) 37000 (2023) 85700 38200 49600 51100 89500 107000 131000 142000
2026-05-05 07:00 8.46 51200 142000 (2016) 37000 (2023) 85700 38200 49600 51100 89500 107000 131000 142000
2026-05-05 06:00 8.47 51300 142000 (2016) 37000 (2023) 85700 38200 49600 51100 89500 107000 131000 142000
2026-05-05 05:00 8.46 51200 142000 (2016) 37000 (2023) 85700 38200 49600 51100 89500 107000 131000 142000
2026-05-05 04:00 8.46 51200 142000 (2016) 37000 (2023) 85700 38200 49600 51100 89500 107000 131000 142000
2026-05-05 03:00 8.44 51100 142000 (2016) 37000 (2023) 85700 38200 49600 51100 89500 107000 131000 142000
2026-05-05 02:00 8.45 51200 142000 (2016) 37000 (2023) 85700 38200 49600 51100 89500 107000 131000 142000
2026-05-05 01:00 8.48 51300 142000 (2016) 37000 (2023) 85700 38200 49600 51100 89500 107000 131000 142000
2026-05-05 00:00 8.48 51300 142000 (2016) 37000 (2023) 85700 38200 49600 51100 89500 107000 131000 142000
2026-05-04 23:00 8.46 51200 142000 (2016) 37000 (2023) 85700 38200 49600 51100 89500 107000 131000 142000
2026-05-04 22:00 8.46 51200 153000 (2016) 37600 (2023) 85800 38400 46500 49700 84500 115000 141000 153000
2026-05-04 21:00 8.47 51300 153000 (2016) 37600 (2023) 85800 38400 46500 49700 84500 115000 141000 153000
2026-05-04 20:00 8.47 51300 153000 (2016) 37600 (2023) 85800 38400 46500 49700 84500 115000 141000 153000
2026-05-04 19:00 8.46 51200 153000 (2016) 37600 (2023) 85800 38400 46500 49700 84500 115000 141000 153000
2026-05-04 18:00 8.49 51400 153000 (2016) 37600 (2023) 85800 38400 46500 49700 84500 115000 141000 153000
2026-05-04 17:00 8.51 51500 153000 (2016) 37600 (2023) 85800 38400 46500 49700 84500 115000 141000 153000
2026-05-04 16:00 8.49 51400 153000 (2016) 37600 (2023) 85800 38400 46500 49700 84500 115000 141000 153000
2026-05-04 15:00 8.47 51300 153000 (2016) 37600 (2023) 85800 38400 46500 49700 84500 115000 141000 153000
2026-05-04 14:00 8.50 51400 153000 (2016) 37600 (2023) 85800 38400 46500 49700 84500 115000 141000 153000
2026-05-04 13:00 8.50 51400 153000 (2016) 37600 (2023) 85800 38400 46500 49700 84500 115000 141000 153000
2026-05-04 12:00 8.53 51600 153000 (2016) 37600 (2023) 85800 38400 46500 49700 84500 115000 141000 153000
2026-05-04 11:00 8.51 51500 153000 (2016) 37600 (2023) 85800 38400 46500 49700 84500 115000 141000 153000
2026-05-04 10:00 8.50 51400 153000 (2016) 37600 (2023) 85800 38400 46500 49700 84500 115000 141000 153000
2026-05-04 09:00 8.51 51500 153000 (2016) 37600 (2023) 85800 38400 46500 49700 84500 115000 141000 153000
2026-05-04 08:00 8.51 51500 153000 (2016) 37600 (2023) 85800 38400 46500 49700 84500 115000 141000 153000
2026-05-04 07:00 8.53 51600 153000 (2016) 37600 (2023) 85800 38400 46500 49700 84500 115000 141000 153000
2026-05-04 06:00 8.54 51700 153000 (2016) 37600 (2023) 85800 38400 46500 49700 84500 115000 141000 153000
2026-05-04 05:00 8.52 51600 153000 (2016) 37600 (2023) 85800 38400 46500 49700 84500 115000 141000 153000
2026-05-04 04:00 8.51 51500 153000 (2016) 37600 (2023) 85800 38400 46500 49700 84500 115000 141000 153000
2026-05-04 03:00 8.52 51600 153000 (2016) 37600 (2023) 85800 38400 46500 49700 84500 115000 141000 153000
2026-05-04 02:00 8.53 51600 153000 (2016) 37600 (2023) 85800 38400 46500 49700 84500 115000 141000 153000
2026-05-04 01:00 8.53 51600 153000 (2016) 37600 (2023) 85800 38400 46500 49700 84500 115000 141000 153000
2026-05-04 00:00 8.56 51800 153000 (2016) 37600 (2023) 85800 38400 46500 49700 84500 115000 141000 153000
2026-05-03 23:00 8.55 51700 153000 (2016) 37600 (2023) 85800 38400 46500 49700 84500 115000 141000 153000
2026-05-03 22:00 8.57 51900 171000 (2019) 38200 (2023) 88900 39000 47200 50400 81000 123000 151000 170000
2026-05-03 21:00 8.55 51700 171000 (2019) 38200 (2023) 88900 39000 47200 50400 81000 123000 151000 170000
2026-05-03 20:00 8.59 52000 171000 (2019) 38200 (2023) 88900 39000 47200 50400 81000 123000 151000 170000
2026-05-03 19:00 8.57 51900 171000 (2019) 38200 (2023) 88900 39000 47200 50400 81000 123000 151000 170000
2026-05-03 18:00 8.61 52100 171000 (2019) 38200 (2023) 88900 39000 47200 50400 81000 123000 151000 170000
2026-05-03 17:00 8.59 52000 171000 (2019) 38200 (2023) 88900 39000 47200 50400 81000 123000 151000 170000
2026-05-03 16:00 8.63 52200 171000 (2019) 38200 (2023) 88900 39000 47200 50400 81000 123000 151000 170000
2026-05-03 15:00 8.63 52200 171000 (2019) 38200 (2023) 88900 39000 47200 50400 81000 123000 151000 170000
2026-05-03 14:00 8.63 52200 171000 (2019) 38200 (2023) 88900 39000 47200 50400 81000 123000 151000 170000
2026-05-03 13:00 8.64 52300 171000 (2019) 38200 (2023) 88900 39000 47200 50400 81000 123000 151000 170000
2026-05-03 12:00 8.63 52200 171000 (2019) 38200 (2023) 88900 39000 47200 50400 81000 123000 151000 170000
2026-05-03 11:00 8.67 52400 171000 (2019) 38200 (2023) 88900 39000 47200 50400 81000 123000 151000 170000
2026-05-03 10:00 8.70 52600 171000 (2019) 38200 (2023) 88900 39000 47200 50400 81000 123000 151000 170000
2026-05-03 09:00 8.69 52600 171000 (2019) 38200 (2023) 88900 39000 47200 50400 81000 123000 151000 170000
2026-05-03 08:00 8.69 52600 171000 (2019) 38200 (2023) 88900 39000 47200 50400 81000 123000 151000 170000
2026-05-03 07:00 8.73 52800 171000 (2019) 38200 (2023) 88900 39000 47200 50400 81000 123000 151000 170000
2026-05-03 06:00 8.74 52900 171000 (2019) 38200 (2023) 88900 39000 47200 50400 81000 123000 151000 170000
2026-05-03 05:00 8.75 52900 171000 (2019) 38200 (2023) 88900 39000 47200 50400 81000 123000 151000 170000
2026-05-03 04:00 8.76 53000 171000 (2019) 38200 (2023) 88900 39000 47200 50400 81000 123000 151000 170000
2026-05-03 03:00 8.80 53200 171000 (2019) 38200 (2023) 88900 39000 47200 50400 81000 123000 151000 170000
2026-05-03 02:00 8.82 53300 171000 (2019) 38200 (2023) 88900 39000 47200 50400 81000 123000 151000 170000
2026-05-03 01:00 8.83 53400 171000 (2019) 38200 (2023) 88900 39000 47200 50400 81000 123000 151000 170000
2026-05-03 00:00 8.89 53800 171000 (2019) 38200 (2023) 88900 39000 47200 50400 81000 123000 151000 170000
2026-05-02 23:00 8.92 53900 171000 (2019) 38200 (2023) 88900 39000 47200 50400 81000 123000 151000 170000
2026-05-02 22:00 8.91 53900 188000 (2019) 38100 (2023) 90300 39000 47800 51000 75400 125000 161000 187000
2026-05-02 21:00 8.93 54000 188000 (2019) 38100 (2023) 90300 39000 47800 51000 75400 125000 161000 187000
2026-05-02 20:00 8.98 54300 188000 (2019) 38100 (2023) 90300 39000 47800 51000 75400 125000 161000 187000
2026-05-02 19:00 8.99 54400 188000 (2019) 38100 (2023) 90300 39000 47800 51000 75400 125000 161000 187000
2026-05-02 18:00 9.03 54600 188000 (2019) 38100 (2023) 90300 39000 47800 51000 75400 125000 161000 187000
2026-05-02 17:00 9.05 54700 188000 (2019) 38100 (2023) 90300 39000 47800 51000 75400 125000 161000 187000
2026-05-02 16:00 9.09 55000 188000 (2019) 38100 (2023) 90300 39000 47800 51000 75400 125000 161000 187000
2026-05-02 15:00 9.13 55200 188000 (2019) 38100 (2023) 90300 39000 47800 51000 75400 125000 161000 187000
2026-05-02 14:00 9.13 55200 188000 (2019) 38100 (2023) 90300 39000 47800 51000 75400 125000 161000 187000
2026-05-02 13:00 9.17 55400 188000 (2019) 38100 (2023) 90300 39000 47800 51000 75400 125000 161000 187000
2026-05-02 12:00 9.21 55700 188000 (2019) 38100 (2023) 90300 39000 47800 51000 75400 125000 161000 187000
2026-05-02 11:00 9.23 55800 188000 (2019) 38100 (2023) 90300 39000 47800 51000 75400 125000 161000 187000
2026-05-02 10:00 9.24 55900 188000 (2019) 38100 (2023) 90300 39000 47800 51000 75400 125000 161000 187000
2026-05-02 09:00 9.28 56100 188000 (2019) 38100 (2023) 90300 39000 47800 51000 75400 125000 161000 187000
2026-05-02 08:00 9.30 56200 188000 (2019) 38100 (2023) 90300 39000 47800 51000 75400 125000 161000 187000
2026-05-02 07:00 9.32 56400 188000 (2019) 38100 (2023) 90300 39000 47800 51000 75400 125000 161000 187000
2026-05-02 06:00 9.33 56400 188000 (2019) 38100 (2023) 90300 39000 47800 51000 75400 125000 161000 187000
2026-05-02 05:00 9.33 56400 188000 (2019) 38100 (2023) 90300 39000 47800 51000 75400 125000 161000 187000
2026-05-02 04:00 9.35 56600 188000 (2019) 38100 (2023) 90300 39000 47800 51000 75400 125000 161000 187000
2026-05-02 03:00 9.35 56600 188000 (2019) 38100 (2023) 90300 39000 47800 51000 75400 125000 161000 187000
2026-05-02 02:00 9.37 56700 188000 (2019) 38100 (2023) 90300 39000 47800 51000 75400 125000 161000 187000
2026-05-02 01:00 9.42 57000 188000 (2019) 38100 (2023) 90300 39000 47800 51000 75400 125000 161000 187000
2026-05-02 00:00 9.40 56900 188000 (2019) 38100 (2023) 90300 39000 47800 51000 75400 125000 161000 187000
2026-05-01 23:00 9.43 57100 188000 (2019) 38100 (2023) 90300 39000 47800 51000 75400 125000 161000 187000
2026-05-01 22:00 9.44 57100 187000 (2019) 38600 (2023) 86900 39400 47600 50100 75200 115000 144000 184000
2026-05-01 21:00 9.46 57200 187000 (2019) 38600 (2023) 86900 39400 47600 50100 75200 115000 144000 184000
2026-05-01 20:00 9.47 57300 187000 (2019) 38600 (2023) 86900 39400 47600 50100 75200 115000 144000 184000
2026-05-01 19:00 9.51 57600 187000 (2019) 38600 (2023) 86900 39400 47600 50100 75200 115000 144000 184000
2026-05-01 18:00 9.50 57500 187000 (2019) 38600 (2023) 86900 39400 47600 50100 75200 115000 144000 184000
2026-05-01 17:00 9.54 57700 187000 (2019) 38600 (2023) 86900 39400 47600 50100 75200 115000 144000 184000
2026-05-01 16:00 9.56 57900 187000 (2019) 38600 (2023) 86900 39400 47600 50100 75200 115000 144000 184000
2026-05-01 15:00 9.57 57900 187000 (2019) 38600 (2023) 86900 39400 47600 50100 75200 115000 144000 184000
2026-05-01 14:00 9.60 58100 187000 (2019) 38600 (2023) 86900 39400 47600 50100 75200 115000 144000 184000
2026-05-01 13:00 9.67 58600 187000 (2019) 38600 (2023) 86900 39400 47600 50100 75200 115000 144000 184000
2026-05-01 12:00 9.68 58600 187000 (2019) 38600 (2023) 86900 39400 47600 50100 75200 115000 144000 184000
2026-05-01 11:00 9.72 58900 187000 (2019) 38600 (2023) 86900 39400 47600 50100 75200 115000 144000 184000
2026-05-01 10:00 9.77 59200 187000 (2019) 38600 (2023) 86900 39400 47600 50100 75200 115000 144000 184000
2026-05-01 09:00 9.83 59600 187000 (2019) 38600 (2023) 86900 39400 47600 50100 75200 115000 144000 184000
2026-05-01 08:00 9.88 59900 187000 (2019) 38600 (2023) 86900 39400 47600 50100 75200 115000 144000 184000
2026-05-01 07:00 9.92 60200 187000 (2019) 38600 (2023) 86900 39400 47600 50100 75200 115000 144000 184000
2026-05-01 06:00 9.99 60600 187000 (2019) 38600 (2023) 86900 39400 47600 50100 75200 115000 144000 184000
2026-05-01 05:00 10.06 61100 187000 (2019) 38600 (2023) 86900 39400 47600 50100 75200 115000 144000 184000
2026-05-01 04:00 10.11 61400 187000 (2019) 38600 (2023) 86900 39400 47600 50100 75200 115000 144000 184000
2026-05-01 03:00 10.19 61900 187000 (2019) 38600 (2023) 86900 39400 47600 50100 75200 115000 144000 184000
2026-05-01 02:00 10.25 62300 187000 (2019) 38600 (2023) 86900 39400 47600 50100 75200 115000 144000 184000
2026-05-01 01:00 10.32 62800 187000 (2019) 38600 (2023) 86900 39400 47600 50100 75200 115000 144000 184000
2026-05-01 00:00 10.39 63300 187000 (2019) 38600 (2023) 86900 39400 47600 50100 75200 115000 144000 184000
2026-04-30 23:00 10.49 64000 187000 (2019) 38600 (2023) 86900 39400 47600 50100 75200 115000 144000 184000
2026-04-30 22:00 10.56 64400 151000 (2016) 39300 (2023) 82900 40000 46500 47100 80300 112000 133000 150000
2026-04-30 21:00 10.66 65100 151000 (2016) 39300 (2023) 82900 40000 46500 47100 80300 112000 133000 150000
2026-04-30 20:00 10.77 65900 151000 (2016) 39300 (2023) 82900 40000 46500 47100 80300 112000 133000 150000
2026-04-30 19:00 10.85 66400 151000 (2016) 39300 (2023) 82900 40000 46500 47100 80300 112000 133000 150000
2026-04-30 18:00 10.96 67200 151000 (2016) 39300 (2023) 82900 40000 46500 47100 80300 112000 133000 150000
2026-04-30 17:00 11.05 67800 151000 (2016) 39300 (2023) 82900 40000 46500 47100 80300 112000 133000 150000
2026-04-30 16:00 11.17 68700 151000 (2016) 39300 (2023) 82900 40000 46500 47100 80300 112000 133000 150000
2026-04-30 15:00 11.28 69400 151000 (2016) 39300 (2023) 82900 40000 46500 47100 80300 112000 133000 150000
2026-04-30 14:00 11.42 70500 151000 (2016) 39300 (2023) 82900 40000 46500 47100 80300 112000 133000 150000
2026-04-30 13:00 11.54 71300 151000 (2016) 39300 (2023) 82900 40000 46500 47100 80300 112000 133000 150000
2026-04-30 12:00 11.65 72100 151000 (2016) 39300 (2023) 82900 40000 46500 47100 80300 112000 133000 150000
2026-04-30 11:00 11.79 73200 151000 (2016) 39300 (2023) 82900 40000 46500 47100 80300 112000 133000 150000
2026-04-30 10:00 11.92 74100 151000 (2016) 39300 (2023) 82900 40000 46500 47100 80300 112000 133000 150000
2026-04-30 09:00 12.04 75000 151000 (2016) 39300 (2023) 82900 40000 46500 47100 80300 112000 133000 150000
2026-04-30 08:00 12.17 76000 151000 (2016) 39300 (2023) 82900 40000 46500 47100 80300 112000 133000 150000
2026-04-30 07:00 12.33 77200 151000 (2016) 39300 (2023) 82900 40000 46500 47100 80300 112000 133000 150000
2026-04-30 06:00 12.47 78300 151000 (2016) 39300 (2023) 82900 40000 46500 47100 80300 112000 133000 150000
2026-04-30 05:00 12.63 79600 151000 (2016) 39300 (2023) 82900 40000 46500 47100 80300 112000 133000 150000
2026-04-30 04:00 12.77 80700 151000 (2016) 39300 (2023) 82900 40000 46500 47100 80300 112000 133000 150000
2026-04-30 03:00 12.93 82000 151000 (2016) 39300 (2023) 82900 40000 46500 47100 80300 112000 133000 150000
2026-04-30 02:00 13.07 83100 151000 (2016) 39300 (2023) 82900 40000 46500 47100 80300 112000 133000 150000
2026-04-30 01:00 13.22 84300 151000 (2016) 39300 (2023) 82900 40000 46500 47100 80300 112000 133000 150000
2026-04-30 00:00 13.36 85500 151000 (2016) 39300 (2023) 82900 40000 46500 47100 80300 112000 133000 150000
2026-04-29 23:00 13.49 86500 151000 (2016) 39300 (2023) 82900 40000 46500 47100 80300 112000 133000 150000
2026-04-29 22:00 13.65 87900 187000 (2016) 39900 (2023) 84000 39900 41800 46600 73900 107000 124000 181000
2026-04-29 21:00 13.77 88900 187000 (2016) 39900 (2023) 84000 39900 41800 46600 73900 107000 124000 181000
2026-04-29 20:00 13.93 90300 187000 (2016) 39900 (2023) 84000 39900 41800 46600 73900 107000 124000 181000
2026-04-29 19:00 14.09 91600 187000 (2016) 39900 (2023) 84000 39900 41800 46600 73900 107000 124000 181000
2026-04-29 18:00 14.23 92900 187000 (2016) 39900 (2023) 84000 39900 41800 46600 73900 107000 124000 181000
2026-04-29 17:00 14.38 94200 187000 (2016) 39900 (2023) 84000 39900 41800 46600 73900 107000 124000 181000
2026-04-29 16:00 14.52 95400 187000 (2016) 39900 (2023) 84000 39900 41800 46600 73900 107000 124000 181000
2026-04-29 15:00 14.66 96700 187000 (2016) 39900 (2023) 84000 39900 41800 46600 73900 107000 124000 181000
2026-04-29 14:00 14.80 97900 187000 (2016) 39900 (2023) 84000 39900 41800 46600 73900 107000 124000 181000
2026-04-29 13:00 14.98 99600 187000 (2016) 39900 (2023) 84000 39900 41800 46600 73900 107000 124000 181000
2026-04-29 12:00 15.08 100000 187000 (2016) 39900 (2023) 84000 39900 41800 46600 73900 107000 124000 181000
2026-04-29 11:00 15.21 102000 187000 (2016) 39900 (2023) 84000 39900 41800 46600 73900 107000 124000 181000
2026-04-29 10:00 15.34 103000 187000 (2016) 39900 (2023) 84000 39900 41800 46600 73900 107000 124000 181000
2026-04-29 09:00 15.45 104000 187000 (2016) 39900 (2023) 84000 39900 41800 46600 73900 107000 124000 181000
2026-04-29 08:00 15.55 105000 187000 (2016) 39900 (2023) 84000 39900 41800 46600 73900 107000 124000 181000
2026-04-29 07:00 15.64 106000 187000 (2016) 39900 (2023) 84000 39900 41800 46600 73900 107000 124000 181000
2026-04-29 06:00 15.71 106000 187000 (2016) 39900 (2023) 84000 39900 41800 46600 73900 107000 124000 181000
2026-04-29 05:00 15.77 107000 187000 (2016) 39900 (2023) 84000 39900 41800 46600 73900 107000 124000 181000
2026-04-29 04:00 15.84 108000 187000 (2016) 39900 (2023) 84000 39900 41800 46600 73900 107000 124000 181000
2026-04-29 03:00 15.90 108000 187000 (2016) 39900 (2023) 84000 39900 41800 46600 73900 107000 124000 181000
2026-04-29 02:00 15.94 109000 187000 (2016) 39900 (2023) 84000 39900 41800 46600 73900 107000 124000 181000
2026-04-29 01:00 15.95 109000 187000 (2016) 39900 (2023) 84000 39900 41800 46600 73900 107000 124000 181000
2026-04-29 00:00 15.97 109000 187000 (2016) 39900 (2023) 84000 39900 41800 46600 73900 107000 124000 181000
2026-04-28 23:00 15.99 109000 187000 (2016) 39900 (2023) 84000 39900 41800 46600 73900 107000 124000 181000
2026-04-28 22:00 15.95 109000 205000 (2016) 40200 (2022) 83900 40200 42200 47300 71500 101000 120000 197000
2026-04-28 21:00 15.94 109000 205000 (2016) 40200 (2022) 83900 40200 42200 47300 71500 101000 120000 197000
2026-04-28 20:00 15.94 109000 205000 (2016) 40200 (2022) 83900 40200 42200 47300 71500 101000 120000 197000
2026-04-28 19:00 15.89 108000 205000 (2016) 40200 (2022) 83900 40200 42200 47300 71500 101000 120000 197000
2026-04-28 18:00 15.85 108000 205000 (2016) 40200 (2022) 83900 40200 42200 47300 71500 101000 120000 197000
2026-04-28 17:00 15.80 107000 205000 (2016) 40200 (2022) 83900 40200 42200 47300 71500 101000 120000 197000
2026-04-28 16:00 15.73 107000 205000 (2016) 40200 (2022) 83900 40200 42200 47300 71500 101000 120000 197000
2026-04-28 15:00 15.65 106000 205000 (2016) 40200 (2022) 83900 40200 42200 47300 71500 101000 120000 197000
2026-04-28 14:00 15.59 105000 205000 (2016) 40200 (2022) 83900 40200 42200 47300 71500 101000 120000 197000
2026-04-28 13:00 15.50 104000 205000 (2016) 40200 (2022) 83900 40200 42200 47300 71500 101000 120000 197000
2026-04-28 12:00 15.41 104000 205000 (2016) 40200 (2022) 83900 40200 42200 47300 71500 101000 120000 197000
2026-04-28 11:00 15.32 103000 205000 (2016) 40200 (2022) 83900 40200 42200 47300 71500 101000 120000 197000
2026-04-28 10:00 15.22 102000 205000 (2016) 40200 (2022) 83900 40200 42200 47300 71500 101000 120000 197000
2026-04-28 09:00 15.13 101000 205000 (2016) 40200 (2022) 83900 40200 42200 47300 71500 101000 120000 197000
2026-04-28 08:00 15.03 100000 205000 (2016) 40200 (2022) 83900 40200 42200 47300 71500 101000 120000 197000
2026-04-28 07:00 14.93 99100 205000 (2016) 40200 (2022) 83900 40200 42200 47300 71500 101000 120000 197000
2026-04-28 06:00 14.84 98300 205000 (2016) 40200 (2022) 83900 40200 42200 47300 71500 101000 120000 197000
2026-04-28 05:00 14.75 97500 205000 (2016) 40200 (2022) 83900 40200 42200 47300 71500 101000 120000 197000
2026-04-28 04:00 14.67 96800 205000 (2016) 40200 (2022) 83900 40200 42200 47300 71500 101000 120000 197000
2026-04-28 03:00 14.60 96100 205000 (2016) 40200 (2022) 83900 40200 42200 47300 71500 101000 120000 197000
2026-04-28 02:00 14.51 95300 205000 (2016) 40200 (2022) 83900 40200 42200 47300 71500 101000 120000 197000
2026-04-28 01:00 14.41 94400 205000 (2016) 40200 (2022) 83900 40200 42200 47300 71500 101000 120000 197000
2026-04-28 00:00 14.29 93400 205000 (2016) 40200 (2022) 83900 40200 42200 47300 71500 101000 120000 197000
2026-04-27 23:00 14.17 92300 205000 (2016) 40200 (2022) 83900 40200 42200 47300 71500 101000 120000 197000

A total of 184 rows are displayed for years 2015 through 2024.